Theta_e
294 286 283 286 289 290 290 288 287 289 293 291 290 290 292 296 297 297 297 299 300 301 304 308 309 310 308 307 333 335 333 334 331 329 326 325 324 329 326 326 328 328 328 329
291 286 292 294 293 292 290 287 286 289 292 292 290 289 292 296 297 298 299 300 300 301 303 308 308 307 307 315 334 334 333 333 330 329 327 323 323 327 323 324 326 330 327 327
288 292 296 294 293 291 290 287 287 287 291 292 289 288 291 296 298 300 301 302 303 301 301 305 307 307 309 326 333 332 332 332 329 328 327 325 323 322 321 323 324 328 329 328
290 296 294 293 292 292 287 293 292 290 288 283 290 281 290 294 295 298 303 303 301 302 303 305 307 307 317 331 333 332 332 331 328 327 325 324 322 320 320 322 325 325 326 328
289 291 290 290 291 294 289 294 291 290 287 286 287 284 287 293 292 295 303 307 303 302 301 303 304 307 318 329 332 331 331 331 329 327 325 322 319 319 319 321 322 323 325 326
291 295 292 291 294 294 295 293 291 290 286 280 286 285 286 290 293 301 305 306 305 306 307 309 311 313 313 327 331 331 330 330 328 326 324 323 320 319 319 319 320 320 322 324
290 291 294 295 289 293 291 287 279 277 277 277 289 286 289 298 301 302 302 303 303 304 303 304 305 307 310 314 328 329 328 327 327 325 324 323 322 319 319 320 320 321 319 318
281 280 289 295 291 289 288 287 280 275 276 280 288 283 290 296 302 303 303 303 302 300 301 301 302 303 306 313 326 328 326 326 326 325 324 325 322 321 321 322 322 320 320 319
284 284 294 296 296 294 289 285 291 284 285 280 284 287 297 299 299 300 300 299 297 297 297 298 301 301 305 319 325 327 326 326 326 326 326 324 322 321 320 321 321 321 321 321
287 282 292 294 296 294 291 293 281 284 278 277 283 286 287 292 294 298 297 296 295 295 294 296 297 299 303 308 318 321 325 325 326 327 325 323 322 321 323 324 323 320 321 321
287 286 285 290 289 288 288 287 288 288 286 279 278 283 292 293 296 297 296 295 293 292 293 293 294 296 300 303 306 309 321 322 325 325 324 322 322 323 324 324 323 323 322 320
289 286 279 282 289 292 291 290 289 282 282 284 284 284 297 298 299 297 295 294 292 292 292 292 292 293 294 297 299 303 308 320 321 322 322 321 322 323 323 322 321 323 322 322
286 281 276 278 285 290 287 290 289 290 289 284 281 284 298 299 299 296 292 291 290 290 290 290 290 290 291 294 295 297 300 312 320 321 320 320 320 321 320 321 321 322 321 320
290 283 279 274 279 284 282 286 288 287 283 284 284 287 294 297 296 294 291 290 289 289 289 289 288 289 289 290 291 294 296 300 309 311 311 310 313 313 312 313 315 317 317 311
286 278 281 282 283 284 283 284 286 285 286 284 288 288 294 295 294 293 292 291 289 288 287 287 287 287 288 288 290 291 294 296 301 304 305 305 307 306 304 303 302 301 301 300
285 277 281 278 282 283 282 284 286 287 289 290 289 288 296 297 296 292 291 289 287 286 286 286 287 286 286 287 288 289 290 293 297 298 299 300 299 298 298 296 296 295 294 293
280 277 279 275 282 282 278 284 286 289 291 290 285 291 294 289 288 288 288 287 285 285 285 285 285 286 286 286 287 287 289 291 292 295 296 296 296 294 293 293 293 291 290 289
280 279 279 275 279 270 282 291 291 290 290 291 292 290 289 286 285 285 286 285 284 284 284 285 285 286 286 287 287 287 288 289 289 290 293 294 294 292 292 291 289 289 288 287
286 282 278 275 273 280 285 287 286 287 286 290 288 289 289 286 284 282 284 284 283 285 285 284 286 286 285 285 287 287 286 287 287 286 288 291 292 291 290 289 288 288 287 285
286 284 278 279 274 271 283 287 289 289 282 288 287 285 284 289 285 279 283 284 284 284 285 285 285 285 285 284 285 285 285 285 285 285 286 288 289 290 289 288 287 286 285 284
279 280 278 278 274 280 285 286 290 280 280 287 285 283 281 279 280 282 284 284 284 285 285 286 287 285 285 285 285 283 283 283 285 285 285 286 286 286 287 288 287 286 284 283
280 279 279 280 276 275 286 286 281 286 287 286 284 282 280 281 281 281 281 281 284 284 286 286 285 286 288 287 286 283 282 284 285 285 284 284 284 284 285 285 285 285 284 283
280 284 280 280 279 285 286 284 286 287 286 285 284 283 282 280 279 280 280 280 281 284 284 285 284 284 285 286 286 283 284 285 283 281 280 280 281 281 281 281 282 284 284 282
284 287 283 283 282 282 285 286 286 287 285 284 284 283 280 277 278 277 278 279 278 281 282 282 281 280 280 283 284 285 285 284 282 280 279 279 279 279 279 279 279 279 280 279
282 284 281 282 283 283 284 286 287 286 285 284 284 283 282 280 279 279 278 278 278 279 279 280 279 279 279 280 281 283 285 285 282 280 279 278 278 277 277 278 277 278 279 278
283 280 278 277 283 282 283 285 285 284 285 284 282 281 281 280 278 278 277 277 277 277 278 277 277 277 278 279 280 281 282 283 283 282 281 279 278 277 276 275 275 279 279 280
Wind_Speed
7 4 9 9 12 16 16 16 15 12 12 10 15 15 15 17 19 19 18 21 17 17 11 8 8 15 11 9 19 20 19 17 13 11 10 7 7 5 3 4 6 6 6 7
5 10 13 13 16 16 17 13 8 9 9 12 15 15 11 14 18 14 19 22 19 17 14 12 8 8 11 10 20 19 19 19 12 11 8 5 5 3 3 3 5 6 7 6
9 11 16 18 16 11 10 7 8 13 13 14 12 22 11 14 16 18 19 23 17 17 12 17 8 9 8 13 21 20 20 19 13 13 9 7 5 3 3 5 3 4 5 7
10 12 13 12 11 7 12 8 14 14 12 10 3 18 15 18 20 21 15 19 17 16 14 9 8 7 8 17 20 21 20 18 15 15 10 14 10 8 4 5 5 5 7 7
8 9 8 7 8 5 13 9 8 7 13 9 13 12 13 16 20 17 13 27 6 6 3 5 8 9 9 17 18 18 19 17 16 14 12 9 5 3 4 4 8 7 8 8
13 8 7 9 8 4 6 5 7 8 6 9 19 5 8 9 8 5 12 14 17 17 14 15 14 15 11 12 19 19 21 18 17 14 15 13 10 8 6 6 6 4 4 4
14 16 19 15 10 3 4 2 4 4 3 10 5 7 3 23 17 16 15 15 14 15 16 17 19 16 15 12 15 17 18 17 16 14 16 14 12 9 9 9 7 9 5 3
8 14 9 14 17 10 8 9 5 4 3 10 17 4 2 7 18 16 12 10 13 17 16 15 16 18 16 15 15 20 16 15 16 15 14 12 10 7 7 8 7 6 7 6
6 7 13 12 4 10 5 7 15 11 10 9 6 7 10 9 10 13 17 16 17 18 17 17 19 20 22 9 12 18 18 16 15 14 12 10 10 10 8 8 7 6 7 6
6 9 7 10 10 6 8 4 4 3 4 6 6 2 2 11 7 9 11 13 14 15 17 17 17 19 18 19 15 9 10 17 16 13 12 11 9 8 8 9 9 9 8 8
7 1 9 12 3 6 5 6 4 4 5 4 4 2 3 8 8 5 8 12 13 13 14 14 15 16 16 16 19 18 10 7 12 11 9 12 9 10 8 8 7 9 9 9
3 3 6 16 21 18 18 10 5 7 6 5 0 1 5 11 7 5 9 10 12 12 12 13 14 15 17 17 16 14 14 8 10 10 11 8 8 8 7 7 7 8 9 8
5 4 5 10 7 8 8 8 11 15 1 8 6 3 10 11 5 12 10 10 10 12 14 13 15 16 16 15 16 16 15 11 5 10 10 8 5 7 6 7 7 8 8 6
2 3 7 8 14 11 12 20 18 6 4 5 6 7 1 1 14 11 10 8 9 11 13 13 13 14 15 15 16 15 16 14 9 11 12 12 10 9 9 9 9 8 7 11
2 6 8 13 19 19 16 22 17 14 16 5 9 12 9 14 15 11 10 8 12 13 14 13 12 12 13 15 15 15 15 15 11 9 12 10 9 9 10 10 10 10 12 11
3 3 5 10 17 18 21 20 16 13 16 8 2 7 13 15 14 13 11 10 11 12 12 13 13 12 12 13 13 12 14 15 13 12 12 10 11 10 11 11 11 11 12 11
8 3 2 9 13 12 10 13 17 10 7 1 0 6 4 9 13 12 10 10 11 11 11 12 12 11 10 11 11 13 12 13 14 13 12 11 11 12 12 11 11 12 12 12
12 5 3 7 10 6 3 14 8 19 11 13 14 11 9 12 12 12 11 9 10 10 10 9 8 9 9 9 10 10 12 13 14 15 14 12 12 12 12 14 13 12 11 12
17 7 3 3 3 9 5 10 9 1 9 16 12 11 8 12 12 14 10 10 9 8 7 8 8 8 9 9 8 10 13 12 13 13 15 12 14 12 13 14 14 12 11 11
10 13 7 2 3 4 10 17 23 21 7 13 11 10 8 5 0 3 7 7 8 8 6 7 7 5 7 9 8 10 12 11 13 11 11 11 13 12 13 12 13 12 11 11
4 4 9 6 2 3 10 25 25 3 5 10 10 10 12 7 6 6 4 7 7 7 9 7 7 7 7 8 8 12 11 13 10 10 11 11 10 9 12 8 10 12 11 10
3 2 3 4 5 2 21 9 10 6 10 11 11 10 13 13 11 10 9 10 7 8 9 9 7 7 6 7 7 11 12 9 10 12 12 13 12 10 8 11 7 10 10 12
3 5 3 5 4 6 8 10 10 11 10 10 10 9 10 10 10 9 8 9 10 9 9 8 7 10 10 7 8 11 11 11 12 12 12 12 11 12 13 11 10 7 9 7
10 15 4 4 5 10 10 9 11 10 11 11 11 10 9 10 9 8 8 9 9 9 10 10 11 12 12 11 12 9 10 11 11 10 11 10 11 12 12 9 9 9 8 7
4 6 7 6 8 8 10 10 8 8 10 12 12 11 11 9 9 9 9 9 8 9 9 10 10 10 11 11 12 13 9 8 9 9 10 11 10 10 11 10 9 10 11 8
5 5 3 3 6 5 5 6 7 10 10 10 10 11 11 11 10 9 8 8 8 9 9 10 10 9 9 10 11 12 11 11 9 8 6 7 7 6 6 8 10 22 21 20
Wind_Direction
197 170 226 225 219 237 252 262 271 281 285 298 295 292 292 292 284 271 272 275 270 267 269 246 233 218 208 207 154 162 152 148 144 148 143 143 175 167 163 165 169 155 148 156
241 218 234 237 249 244 238 253 274 283 289 288 288 282 266 276 278 261 253 256 253 244 253 265 261 230 216 178 157 158 156 153 150 150 147 131 145 169 157 158 179 149 152 156
233 246 225 235 252 251 269 271 278 267 273 268 284 277 283 279 283 283 274 254 244 229 229 241 245 238 225 161 157 158 156 158 146 145 135 126 140 125 154 177 164 150 155 167
258 248 261 268 238 224 261 244 267 289 298 279 354 295 278 275 283 278 331 294 233 228 219 231 240 243 167 157 156 151 155 159 148 153 151 158 173 170 182 166 155 165 182 181
256 290 302 267 267 295 278 284 291 306 295 309 282 271 278 275 275 282 28 359 303 206 37 306 301 264 174 157 155 154 154 161 155 149 143 147 153 156 146 138 155 171 181 178
267 263 252 246 253 235 322 316 322 287 276 274 271 249 302 304 289 37 60 358 10 26 28 17 7 359 358 172 155 157 159 163 157 145 143 155 165 174 154 155 156 149 135 132
262 255 245 236 250 222 264 12 310 308 227 244 211 275 10 1 32 28 28 5 354 20 16 15 1 358 338 323 162 157 158 158 155 143 152 156 173 172 168 156 153 152 137 133
283 282 279 219 214 192 205 175 188 266 284 301 308 269 253 33 355 15 7 2 1 19 9 10 2 346 336 291 186 155 159 152 159 145 158 167 167 163 160 151 154 158 154 173
339 289 340 323 114 153 237 228 221 253 273 280 253 243 89 36 335 357 357 3 11 10 2 1 5 354 350 348 164 157 156 153 156 156 156 156 143 144 150 145 148 149 140 159
352 302 316 335 330 239 191 229 0 1 293 265 278 77 32 333 37 3 341 4 4 11 360 1 6 359 355 2 7 4 157 152 153 146 142 142 148 136 140 148 154 152 153 161
356 16 309 324 268 263 259 244 244 191 165 243 300 307 219 277 320 360 27 15 5 10 1 359 9 4 5 3 17 6 15 98 126 122 134 130 143 126 136 139 146 150 149 159
4 272 282 280 282 282 287 285 287 228 235 228 231 302 231 284 272 93 63 27 9 11 8 359 14 15 14 11 9 6 0 22 76 91 115 121 121 124 131 141 137 141 150 159
336 317 322 306 298 39 25 327 316 328 67 231 241 257 214 226 245 85 76 46 16 6 15 5 11 20 16 9 11 9 4 359 47 101 80 78 112 117 125 124 126 127 126 125
129 226 230 263 287 308 302 306 303 334 262 298 194 213 170 23 112 87 78 63 48 27 19 13 13 16 16 12 12 13 9 359 34 71 83 74 66 64 60 62 69 74 75 85
131 259 281 275 281 292 278 280 284 303 287 268 313 339 47 78 100 91 83 63 51 36 27 17 19 15 18 17 13 12 12 11 13 57 79 73 72 67 72 65 68 72 71 75
11 280 324 289 304 275 275 276 280 281 273 250 288 292 75 77 84 72 64 59 55 45 33 19 23 21 24 28 16 15 16 16 14 46 60 71 74 71 67 62 69 73 74 73
265 199 299 278 294 282 255 251 249 229 274 26 247 98 74 77 66 45 59 59 55 49 37 23 19 13 24 28 31 24 20 24 27 39 50 60 71 78 71 69 66 71 76 74
234 217 211 279 289 245 203 346 294 101 61 78 85 102 84 94 81 58 44 58 55 48 38 25 18 5 4 14 30 47 33 35 36 33 41 50 61 69 78 77 69 65 66 70
209 196 235 249 265 299 345 6 342 230 62 33 49 45 110 139 114 58 45 49 52 48 43 32 26 21 11 12 7 49 52 42 44 33 37 39 59 61 66 74 74 69 69 68
134 165 189 328 354 311 343 330 316 295 93 37 37 21 356 152 41 68 40 49 58 47 32 35 27 26 31 23 17 38 52 50 43 32 37 36 46 58 69 68 73 75 71 68
137 142 204 213 210 271 356 316 294 136 60 48 53 45 43 77 70 95 70 66 57 50 43 29 35 49 33 23 33 53 49 38 34 38 40 38 28 45 67 58 87 91 83 72
109 204 200 211 201 351 1 352 47 47 57 67 68 75 87 93 89 69 53 41 52 62 54 42 39 45 45 39 61 68 61 49 49 46 46 45 38 43 37 72 59 75 80 85
35 3 52 39 64 47 36 45 34 49 62 70 87 91 93 88 76 64 56 45 42 53 59 47 43 55 39 46 62 64 55 50 49 56 45 43 40 44 46 38 49 62 73 56
355 5 61 108 64 53 31 55 46 43 70 69 70 78 80 88 79 72 54 47 42 37 51 51 46 41 32 21 30 86 90 82 73 70 64 54 53 52 49 46 42 51 54 50
338 347 341 88 110 110 55 36 52 74 75 68 69 78 83 88 80 76 66 54 50 50 52 50 47 44 33 23 26 31 52 86 88 83 78 71 61 59 65 60 56 57 56 69
355 353 21 62 8 98 53 59 61 57 67 89 91 87 79 79 78 74 69 61 55 49 49 52 46 39 33 32 31 33 36 48 64 64 81 91 93 88 78 73 73 67 72 71